FENGYUN 1C DEB

Satellite information

Favourite Embed

Satellite Type and Status

DEBRISIN ORBIT

Key statistics

Satellite FENGYUN 1C DEB at a glance.

Uptime

9715

Days in orbit

Revolutions

≈ 14.2

Per day

Orbit

SSO

Sun Synchronous Orbit

Inclination

98.9

Latest

Satellite identification and parameters

Extended collection of information and parameters for FENGYUN 1C DEB.

Object identification

Identified? True

Debris? True

Object name: FENGYUN 1C DEB

International designator: 1999-025EZK

Object number (NORAD): 46468

Object ID (CCSDS): 46468

Country: PEOPLES REPUBLIC OF CHINA (PRC)

Current information (Y/N): Y

RCS size: SMALL

Orbital parameters

Period: 101.072 minutes

Inclination: 98.8823 deg

SMA: 7187.526 km

Apoapsis: 842.506 km

Periapsis: 776.277 km

RAAN: 74.9879 deg

Eccentricy: 0.00460719

Argument of periapsis: 229.1827 deg

Mean anomaly: 160.5992 deg

Mean motion: 14.24733341 rev/day

Mean motion (dot): 0.00006714 rev/day2

B* drag term: 0.0028688303 1/REarth

Two-line elements (TLE)

Creation date: Dec. 13, 2025, 5:47 p.m.

Reference frame: TEME

Reference center: EARTH

Epoch: Dec. 13, 2025, 4:55 a.m. UTC

TLE line 0: 0 FENGYUN 1C DEB

TLE line 1: 1 46468U 99025EZK 25347.20493817 .00006714 00000-0 28688-2 0 9990

TLE line 2: 2 46468 98.8823 74.9879 0046072 229.1827 160.5992 14.24733341738239

Live tracking on map

Real-time ground track for satellite FENGYUN 1C DEB.

In-orbit conjunctions

A list of the most updated potential collisions computed for object FENGYUN 1C DEB.

Target Orbit TCA Probability of collision Miss distance Type
FENGYUN 1C DEB SSO 2025-10-16 05:40:56 0.0001735063 68.0 (m) DEBRIS
SL-16 R/B LEO 2025-08-08 19:24:37 0.0003280432 215.0 (m) ROCKET BODY
CZ-6A DEB LEO 2025-01-22 21:18:56 0.0002912441 327.0 (m) DEBRIS

Associated space launch

Chinese polar orbiting meteorological satellite

FENGYUN 1C DEB was lifted into orbit during the mission ‘Long March 4B | Feng Yun 1C’, on board a Long March 4B space rocket.

The launch took place on May 10, 1999, 1:33 a.m. from Launch Complex 7.

For more information about the launch, click the button.

Launch to space Long March 4B | Feng Yun 1C
Long March 4B | Feng Yun 1C

Agency: N/A

Status: Launch Successful

Launch date: May 10, 1999, 1:33 a.m. UTC

Rocket: Long March 4B

Launch pad: Launch Complex 7

Location: Taiyuan Satellite Launch Center, People's Republic of China

...

Latest news about this satellite

There are no fresh news available about this satellite. Check back as we update our databases every day.


Newsletter sign-up

Weekly statistics, charts and insights to help you stay on top of the space industry.